Tracking 25711 objects as of 22-May-2022
HD Live streaming from Space Station
objects crossing your sky now

SL-12 R/B(2)

Track SL-12 R/B(2) now!


NORAD ID: 28119
Int'l Code: 2003-053E
Perigee: 34,931.4 km
Apogee: 36,788.3 km
Inclination: 12.5 °
Period: 1,439.5 minutes
Semi major axis: 42230 km
RCS: 1.9952 m2 (large)
Launch date: November 24, 2003
Source: Commonwealth of Independent States (former USSR) (CIS)
Launch site: TYURATAM MISSILE AND SPACE COMPLEX (TTMTR)

Note: This is a ROCKET BODY
aabbcc
Your satellite tracking list
Your tracking list is empty




NASA's NSSDC Master Catalog

Two Line Element Set (TLE):
1 28119U 03053E   22142.15574146 -.00000319  00000-0  00000-0 0  9990
2 28119  12.4573  23.7633 0219851 267.0690 288.7074  1.00036405 69847
Source of the keplerian elements: AFSPC